﻿_id,日時,平均風速(m/s),平均風向,最大瞬間風速(m/s),最大風速時風向,気温(℃),湿度(%),10分間移動積算雨量(mm),1時間移動積算雨量(mm),日雨量(mm),累計雨量(mm),日射(日積算)(MJ/m2),日照(日積算)(min),現地気圧(hPa),海面気圧(hPa)
1,2020-01-06T00:00:00,0.2,静穏,0.8,西,1.9,93.9,0,0,1,8,5.2,100,1016.7,1031.4
2,2020-01-06T00:01:00,0.3,西南西,0.8,西,2,93.8,0,0,0,8,0,0,1016.6,1031.3
3,2020-01-06T00:02:00,0.3,西南西,0.8,西,2,93.9,0,0,0,8,0,0,1016.7,1031.4
4,2020-01-06T00:03:00,0.3,西,0.8,西,2,94,0,0,0,8,0,0,1016.7,1031.4
5,2020-01-06T00:04:00,0.3,西,0.8,西,2,93.9,0,0,0,8,0,0,1016.7,1031.4
6,2020-01-06T00:05:00,0.3,西,0.6,西,1.9,93.8,0,0,0,8,0,0,1016.7,1031.4
7,2020-01-06T00:06:00,0.3,西,0.6,西,1.9,93.4,0,0,0,8,0,0,1016.7,1031.4
8,2020-01-06T00:07:00,0.3,西北西,0.6,西,1.7,93.3,0,0,0,8,0,0,1016.7,1031.4
9,2020-01-06T00:08:00,0.3,西北西,0.6,西,1.8,93,0,0,0,8,0,0,1016.7,1031.4
10,2020-01-06T00:09:00,0.3,西北西,0.6,西,1.8,93.2,0,0,0,8,0,0,1016.7,1031.4
11,2020-01-06T00:10:00,0.3,西北西,0.6,西,1.8,93.2,0,0,0,8,0,0,1016.8,1031.5
12,2020-01-06T00:11:00,0.2,静穏,0.6,西,1.8,93.3,0,0,0,8,0,0,1016.8,1031.5
13,2020-01-06T00:12:00,0.2,静穏,0.6,西,1.9,93.6,0,0,0,8,0,0,1016.8,1031.5
14,2020-01-06T00:13:00,0.3,西北西,0.6,西,1.7,93.6,0,0,0,8,0,0,1016.8,1031.5
15,2020-01-06T00:14:00,0.3,西北西,0.6,西,1.7,93.3,0,0,0,8,0,0,1016.8,1031.5
16,2020-01-06T00:15:00,0.3,北西,0.6,西北西,1.8,93.4,0,0,0,8,0,0,1016.7,1031.4
17,2020-01-06T00:16:00,0.3,西北西,0.9,西北西,1.8,93.6,0,0,0,8,0,0,1016.7,1031.4
18,2020-01-06T00:17:00,0.3,西北西,0.9,西北西,1.7,93.4,0,0,0,8,0,0,1016.7,1031.4
19,2020-01-06T00:18:00,0.3,西北西,0.9,西北西,1.9,93.4,0,0,0,8,0,0,1016.7,1031.4
20,2020-01-06T00:19:00,0.3,西北西,0.9,西北西,2.1,94.2,0,0,0,8,0,0,1016.7,1031.4
21,2020-01-06T00:20:00,0.3,西北西,0.9,西北西,1.9,94,0,0,0,8,0,0,1016.7,1031.4
22,2020-01-06T00:21:00,0.3,西北西,0.9,西北西,1.7,93.4,0,0,0,8,0,0,1016.7,1031.4
23,2020-01-06T00:22:00,0.3,西北西,0.9,西北西,1.7,93.2,0,0,0,8,0,0,1016.7,1031.4
24,2020-01-06T00:23:00,0.3,北西,0.9,西北西,1.8,93.6,0,0,0,8,0,0,1016.7,1031.4
25,2020-01-06T00:24:00,0.3,北西,0.9,西北西,1.8,93.7,0,0,0,8,0,0,1016.7,1031.4
26,2020-01-06T00:25:00,0.3,北西,0.9,西北西,1.7,93.6,0,0,0,8,0,0,1016.7,1031.4
27,2020-01-06T00:26:00,0.3,北西,0.7,西,1.7,93.6,0,0,0,8,0,0,1016.7,1031.4
28,2020-01-06T00:27:00,0.3,北西,0.7,西,1.7,93.7,0,0,0,8,0,0,1016.6,1031.3
29,2020-01-06T00:28:00,0.2,静穏,0.7,西,1.7,93.6,0,0,0,8,0,0,1016.6,1031.3
30,2020-01-06T00:29:00,0.2,静穏,0.7,西,1.7,93.8,0,0,0,8,0,0,1016.7,1031.4
31,2020-01-06T00:30:00,0.1,静穏,0.6,西北西,1.7,94,0,0,0,8,0,0,1016.7,1031.4
32,2020-01-06T00:31:00,0.1,静穏,0.6,西北西,1.7,93.9,0,0,0,8,0,0,1016.7,1031.4
33,2020-01-06T00:32:00,0.1,静穏,0.6,西北西,1.7,93.9,0,0,0,8,0,0,1016.6,1031.3
34,2020-01-06T00:33:00,0.1,静穏,0.6,西北西,1.8,94.1,0,0,0,8,0,0,1016.6,1031.3
35,2020-01-06T00:34:00,0.1,静穏,0.6,西北西,1.9,94.3,0,0,0,8,0,0,1016.6,1031.3
36,2020-01-06T00:35:00,0.1,静穏,0.8,西,1.7,94.3,0,0,0,8,0,0,1016.6,1031.3
37,2020-01-06T00:36:00,0.2,静穏,1.1,西,1.7,93.9,0,0,0,8,0,0,1016.7,1031.4
38,2020-01-06T00:37:00,0.2,静穏,1.2,西北西,1.7,94.1,0,0,0,8,0,0,1016.6,1031.3
39,2020-01-06T00:38:00,0.3,西北西,1.2,西北西,1.7,94.1,0,0,0,8,0,0,1016.7,1031.4
40,2020-01-06T00:39:00,0.3,北西,1.2,西北西,1.7,94.1,0,0,0,8,0,0,1016.7,1031.4
41,2020-01-06T00:40:00,0.3,北西,1.2,西北西,1.7,94.2,0,0,0,8,0,0,1016.7,1031.4
42,2020-01-06T00:41:00,0.3,西北西,1.2,西北西,1.7,94.1,0,0,0,8,0,0,1016.7,1031.4
43,2020-01-06T00:42:00,0.3,西北西,1.2,西北西,1.9,94.4,0,0,0,8,0,0,1016.7,1031.4
44,2020-01-06T00:43:00,0.3,西北西,1.2,西北西,1.9,94.7,0,0,0,8,0,0,1016.7,1031.4
45,2020-01-06T00:44:00,0.3,西北西,1.2,西北西,1.9,94.7,0,0,0,8,0,0,1016.7,1031.4
46,2020-01-06T00:45:00,0.3,北西,1.2,西北西,1.7,94.6,0,0,0,8,0,0,1016.7,1031.4
47,2020-01-06T00:46:00,0.3,北西,1.2,西北西,1.7,94.2,0,0,0,8,0,0,1016.7,1031.4
48,2020-01-06T00:47:00,0.3,北西,1,南西,1.6,94.1,0,0,0,8,0,0,1016.7,1031.4
49,2020-01-06T00:48:00,0.2,静穏,1,南西,1.6,94.1,0,0,0,8,0,0,1016.7,1031.4
50,2020-01-06T00:49:00,0.2,静穏,1,南西,1.6,94.3,0,0,0,8,0,0,1016.7,1031.4
51,2020-01-06T00:50:00,0.3,西北西,1,南西,1.5,94.3,0,0,0,8,0,0,1016.7,1031.4
52,2020-01-06T00:51:00,0.3,西北西,1,南西,1.6,94.1,0,0,0,8,0,0,1016.7,1031.4
53,2020-01-06T00:52:00,0.2,静穏,1,南西,1.7,94.5,0,0,0,8,0,0,1016.8,1031.5
54,2020-01-06T00:53:00,0.3,北西,0.8,西,1.7,94.8,0,0,0,8,0,0,1016.8,1031.5
55,2020-01-06T00:54:00,0.3,北西,0.8,西,1.7,94.9,0,0,0,8,0,0,1016.8,1031.5
56,2020-01-06T00:55:00,0.4,北西,0.9,西南西,1.7,94.9,0,0,0,8,0,0,1016.8,1031.5
57,2020-01-06T00:56:00,0.4,北西,1.2,西,1.6,94.6,0,0,0,8,0,0,1016.7,1031.4
58,2020-01-06T00:57:00,0.5,西北西,1.3,西,1.6,94.5,0,0,0,8,0,0,1016.7,1031.4
59,2020-01-06T00:58:00,0.6,北西,1.3,西,1.7,94.8,0,0,0,8,0,0,1016.7,1031.4
60,2020-01-06T00:59:00,0.6,西北西,1.3,西,1.6,94.8,0,0,0,8,0,0,1016.7,1031.4
61,2020-01-06T01:00:00,0.6,西北西,1.3,西,1.7,94.9,0,0,0,8,0,0,1016.7,1031.4
62,2020-01-06T01:01:00,0.6,西北西,1.3,西,1.7,95,0,0,0,8,0,0,1016.8,1031.5
63,2020-01-06T01:02:00,0.6,西北西,1.3,西,1.6,95,0,0,0,8,0,0,1016.7,1031.4
64,2020-01-06T01:03:00,0.6,西北西,1.3,西,1.6,94.8,0,0,0,8,0,0,1016.7,1031.4
65,2020-01-06T01:04:00,0.6,西北西,1.3,西,1.7,94.9,0,0,0,8,0,0,1016.7,1031.4
66,2020-01-06T01:05:00,0.5,西北西,1.3,西,1.6,94.9,0,0,0,8,0,0,1016.7,1031.4
67,2020-01-06T01:06:00,0.5,西北西,1.3,西,1.7,95,0,0,0,8,0,0,1016.7,1031.4
68,2020-01-06T01:07:00,0.4,西北西,1.1,西,1.6,95.1,0,0,0,8,0,0,1016.7,1031.4
69,2020-01-06T01:08:00,0.3,北西,1,西,1.6,95.1,0,0,0,8,0,0,1016.7,1031.4
70,2020-01-06T01:09:00,0.3,北西,0.7,西南西,1.5,94.9,0,0,0,8,0,0,1016.7,1031.4
71,2020-01-06T01:10:00,0.2,静穏,0.7,西南西,1.6,95,0,0,0,8,0,0,1016.7,1031.4
72,2020-01-06T01:11:00,0.2,静穏,0.7,西南西,1.6,95.3,0,0,0,8,0,0,1016.7,1031.4
73,2020-01-06T01:12:00,0.2,静穏,0.7,北北東,1.6,95.2,0,0,0,8,0,0,1016.6,1031.3
74,2020-01-06T01:13:00,0.2,静穏,0.7,北北東,1.6,95.3,0,0,0,8,0,0,1016.6,1031.3
75,2020-01-06T01:14:00,0.2,静穏,0.7,北北東,1.7,95.3,0,0,0,8,0,0,1016.6,1031.3
76,2020-01-06T01:15:00,0.2,静穏,0.7,北北東,1.7,95.3,0,0,0,8,0,0,1016.6,1031.3
77,2020-01-06T01:16:00,0.2,静穏,0.7,北北東,1.5,95.2,0,0,0,8,0,0,1016.5,1031.2
78,2020-01-06T01:17:00,0.2,静穏,0.7,北北東,1.6,95,0,0,0,8,0,0,1016.5,1031.2
79,2020-01-06T01:18:00,0.2,静穏,0.7,北北東,1.6,95.1,0,0,0,8,0,0,1016.5,1031.2
80,2020-01-06T01:19:00,0.2,静穏,0.7,北北東,1.6,95.2,0,0,0,8,0,0,1016.5,1031.2
81,2020-01-06T01:20:00,0.2,静穏,0.7,北北東,1.6,95.3,0,0,0,8,0,0,1016.5,1031.2
82,2020-01-06T01:21:00,0.2,静穏,0.7,北北東,1.5,95.3,0,0,0,8,0,0,1016.4,1031.1
83,2020-01-06T01:22:00,0.2,静穏,0.5,北西,1.4,95.1,0,0,0,8,0,0,1016.4,1031.1
84,2020-01-06T01:23:00,0.1,静穏,0.5,北西,1.5,95.1,0,0,0,8,0,0,1016.4,1031.1
85,2020-01-06T01:24:00,0.1,静穏,0.5,北西,1.6,95.3,0,0,0,8,0,0,1016.3,1031
86,2020-01-06T01:25:00,0.1,静穏,0.7,西,1.5,95.4,0,0,0,8,0,0,1016.4,1031.1
87,2020-01-06T01:26:00,0.2,静穏,1.1,北西,1.5,95.3,0,0,0,8,0,0,1016.4,1031.1
88,2020-01-06T01:27:00,0.2,静穏,1.1,北西,1.6,95.4,0,0,0,8,0,0,1016.4,1031.1
89,2020-01-06T01:28:00,0.3,北,1.1,北西,1.7,95.5,0,0,0,8,0,0,1016.4,1031.1
90,2020-01-06T01:29:00,0.3,北,1.1,北西,1.5,95.5,0,0,0,8,0,0,1016.4,1031.1
91,2020-01-06T01:30:00,0.3,北,1.1,北西,1.5,95.3,0,0,0,8,0,0,1016.4,1031.1
92,2020-01-06T01:31:00,0.2,静穏,1.1,北西,1.4,95.3,0,0,0,8,0,0,1016.5,1031.2
93,2020-01-06T01:32:00,0.3,北,1.1,北西,1.4,95.2,0,0,0,8,0,0,1016.5,1031.2
94,2020-01-06T01:33:00,0.3,北北西,1.1,北西,1.4,95.2,0,0,0,8,0,0,1016.6,1031.3
95,2020-01-06T01:34:00,0.3,北西,1.1,北西,1.5,95.3,0,0,0,8,0,0,1016.5,1031.2
96,2020-01-06T01:35:00,0.3,北西,1.1,北西,1.4,95.4,0,0,0,8,0,0,1016.6,1031.3
97,2020-01-06T01:36:00,0.2,静穏,0.8,北西,1.6,95.5,0,0,0,8,0,0,1016.5,1031.2
98,2020-01-06T01:37:00,0.2,静穏,0.7,北,1.7,95.6,0,0,0,8,0,0,1016.6,1031.3
99,2020-01-06T01:38:00,0.2,静穏,1,西,1.5,95.6,0,0,0,8,0,0,1016.6,1031.3
100,2020-01-06T01:39:00,0.3,西北西,1.1,西,1.5,95.4,0,0,0,8,0,0,1016.6,1031.3
101,2020-01-06T01:40:00,0.4,西,1.1,西,1.4,95.4,0,0,0,8,0,0,1016.6,1031.3
102,2020-01-06T01:41:00,0.4,西,1.1,西,1.3,95.3,0,0,0,8,0,0,1016.6,1031.4
103,2020-01-06T01:42:00,0.3,西南西,1.1,西,1.2,95.2,0,0,0,8,0,0,1016.6,1031.4
104,2020-01-06T01:43:00,0.3,西南西,1.1,西,1.4,95.3,0,0,0,8,0,0,1016.7,1031.4
105,2020-01-06T01:44:00,0.4,西,1.1,西,1.5,95.5,0,0,0,8,0,0,1016.7,1031.4
106,2020-01-06T01:45:00,0.4,西,1.1,西,1.6,95.6,0,0,0,8,0,0,1016.7,1031.4
107,2020-01-06T01:46:00,0.4,西,1.1,西,1.6,95.7,0,0,0,8,0,0,1016.7,1031.4
108,2020-01-06T01:47:00,0.4,西,1.1,西,1.5,95.7,0,0,0,8,0,0,1016.7,1031.4
109,2020-01-06T01:48:00,0.4,西,1.1,西,1.4,95.5,0,0,0,8,0,0,1016.7,1031.4
110,2020-01-06T01:49:00,0.3,西,1,西,1.4,95.4,0,0,0,8,0,0,1016.7,1031.4
111,2020-01-06T01:50:00,0.2,静穏,0.8,西,1.5,95.5,0,0,0,8,0,0,1016.7,1031.4
112,2020-01-06T01:51:00,0.2,静穏,0.8,西,1.5,95.6,0,0,0,8,0,0,1016.7,1031.4
113,2020-01-06T01:52:00,0.2,静穏,0.8,西,1.4,95.6,0,0,0,8,0,0,1016.7,1031.4
114,2020-01-06T01:53:00,0.2,静穏,0.8,西,1.3,95.5,0,0,0,8,0,0,1016.7,1031.5
115,2020-01-06T01:54:00,0.1,静穏,0.8,西,1.3,95.4,0,0,0,8,0,0,1016.7,1031.5
116,2020-01-06T01:55:00,0.1,静穏,0.8,西,1.5,95.6,0,0,0,8,0,0,1016.8,1031.5
117,2020-01-06T01:56:00,0.1,静穏,0.8,西,1.4,95.6,0,0,0,8,0,0,1016.8,1031.6
118,2020-01-06T01:57:00,0,静穏,0.5,西北西,1.5,95.6,0,0,0,8,0,0,1016.7,1031.4
119,2020-01-06T01:58:00,0,静穏,0.5,北北西,1.6,95.7,0,0,0,8,0,0,1016.7,1031.4
120,2020-01-06T01:59:00,0,静穏,0.5,北北西,1.5,95.7,0,0,0,8,0,0,1016.7,1031.4
121,2020-01-06T02:00:00,0,静穏,0.5,北北西,1.5,95.7,0,0,0,8,0,0,1016.7,1031.4
122,2020-01-06T02:01:00,0,静穏,0.5,北北西,1.7,95.8,0,0,0,8,0,0,1016.6,1031.3
123,2020-01-06T02:02:00,0,静穏,0.5,北北西,1.6,95.7,0,0,0,8,0,0,1016.7,1031.4
124,2020-01-06T02:03:00,0,静穏,0.5,北北西,1.6,95.8,0,0,0,8,0,0,1016.6,1031.3
125,2020-01-06T02:04:00,0,静穏,0.5,北北西,1.4,95.6,0,0,0,8,0,0,1016.6,1031.3
126,2020-01-06T02:05:00,0,静穏,0.5,北北西,1.5,95.4,0,0,0,8,0,0,1016.6,1031.3
127,2020-01-06T02:06:00,0,静穏,0.5,北北西,1.6,95.6,0,0,0,8,0,0,1016.7,1031.4
128,2020-01-06T02:07:00,0,静穏,0.5,北北西,1.6,95.7,0,0,0,8,0,0,1016.7,1031.4
129,2020-01-06T02:08:00,0,静穏,0.7,南南西,1.5,95.7,0,0,0,8,0,0,1016.7,1031.4
130,2020-01-06T02:09:00,0.1,静穏,0.7,南南西,1.5,95.6,0,0,0,8,0,0,1016.7,1031.4
131,2020-01-06T02:10:00,0.1,静穏,0.7,南南西,1.6,95.8,0,0,0,8,0,0,1016.6,1031.3
132,2020-01-06T02:11:00,0.1,静穏,0.7,南南西,1.4,95.6,0,0,0,8,0,0,1016.7,1031.4
133,2020-01-06T02:12:00,0.1,静穏,0.7,南南西,1.5,95.5,0,0,0,8,0,0,1016.7,1031.4
134,2020-01-06T02:13:00,0.2,静穏,0.7,南南西,1.5,95.6,0,0,0,8,0,0,1016.7,1031.4
135,2020-01-06T02:14:00,0.2,静穏,0.7,南南西,1.5,95.6,0,0,0,8,0,0,1016.7,1031.4
136,2020-01-06T02:15:00,0.2,静穏,0.7,南南西,1.5,95.7,0,0,0,8,0,0,1016.7,1031.4
137,2020-01-06T02:16:00,0.2,静穏,0.7,南南西,1.5,95.7,0,0,0,8,0,0,1016.6,1031.3
138,2020-01-06T02:17:00,0.2,静穏,0.7,南南西,1.5,95.7,0,0,0,8,0,0,1016.7,1031.4
139,2020-01-06T02:18:00,0.2,静穏,0.7,西南西,1.4,95.7,0,0,0,8,0,0,1016.6,1031.3
140,2020-01-06T02:19:00,0.1,静穏,0.7,西南西,1.4,95.6,0,0,0,8,0,0,1016.6,1031.3
141,2020-01-06T02:20:00,0.2,静穏,0.7,西南西,1.5,95.6,0,0,0,8,0,0,1016.6,1031.3
142,2020-01-06T02:21:00,0.1,静穏,0.7,西南西,1.6,95.7,0,0,0,8,0,0,1016.6,1031.3
143,2020-01-06T02:22:00,0.1,静穏,0.7,西南西,1.6,95.9,0,0,0,8,0,0,1016.6,1031.3
144,2020-01-06T02:23:00,0,静穏,0.5,南南西,1.6,95.8,0,0,0,8,0,0,1016.6,1031.3
145,2020-01-06T02:24:00,0.1,静穏,0.5,南南西,1.4,95.7,0,0,0,8,0,0,1016.6,1031.3
146,2020-01-06T02:25:00,0.1,静穏,0.5,南南西,1.3,95.5,0,0,0,8,0,0,1016.5,1031.3
147,2020-01-06T02:26:00,0.1,静穏,0.5,南南西,1.3,95.5,0,0,0,8,0,0,1016.5,1031.3
148,2020-01-06T02:27:00,0.1,静穏,0.8,南南西,1.4,95.5,0,0,0,8,0,0,1016.5,1031.2
149,2020-01-06T02:28:00,0.1,静穏,0.8,南南西,1.5,95.7,0,0,0,8,0,0,1016.4,1031.1
150,2020-01-06T02:29:00,0.2,静穏,0.9,南西,1.5,95.8,0,0,0,8,0,0,1016.4,1031.1
151,2020-01-06T02:30:00,0.2,静穏,0.9,南西,1.2,95.7,0,0,0,8,0,0,1016.5,1031.3
152,2020-01-06T02:31:00,0.2,静穏,0.9,南西,1.2,95.4,0,0,0,8,0,0,1016.5,1031.3
153,2020-01-06T02:32:00,0.2,静穏,0.9,南西,1.3,95.4,0,0,0,8,0,0,1016.4,1031.2
154,2020-01-06T02:33:00,0.2,静穏,0.9,南西,1.6,95.7,0,0,0,8,0,0,1016.4,1031.1
155,2020-01-06T02:34:00,0.2,静穏,0.9,南西,1.3,95.8,0,0,0,8,0,0,1016.4,1031.2
156,2020-01-06T02:35:00,0.2,静穏,0.9,南西,1.2,95.6,0,0,0,8,0,0,1016.4,1031.2
157,2020-01-06T02:36:00,0.2,静穏,0.9,南西,1.2,95.5,0,0,0,8,0,0,1016.4,1031.2
158,2020-01-06T02:37:00,0.2,静穏,0.9,南西,1.3,95.5,0,0,0,8,0,0,1016.4,1031.2
159,2020-01-06T02:38:00,0.2,静穏,0.9,南西,1.3,95.7,0,0,0,8,0,0,1016.3,1031
160,2020-01-06T02:39:00,0.2,静穏,0.9,南南西,1.3,95.7,0,0,0,8,0,0,1016.3,1031
161,2020-01-06T02:40:00,0.2,静穏,0.9,南南西,1.3,95.7,0,0,0,8,0,0,1016.3,1031
162,2020-01-06T02:41:00,0.2,静穏,0.9,南南西,1.4,95.7,0,0,0,8,0,0,1016.4,1031.1
163,2020-01-06T02:42:00,0.2,静穏,0.9,南南西,1.2,95.7,0,0,0,8,0,0,1016.3,1031.1
164,2020-01-06T02:43:00,0.2,静穏,0.9,南南西,1.2,95.6,0,0,0,8,0,0,1016.3,1031.1
165,2020-01-06T02:44:00,0.2,静穏,0.9,南南西,1.1,95.6,0,0,0,8,0,0,1016.3,1031.1
166,2020-01-06T02:45:00,0.2,静穏,0.9,南南西,1.1,95.5,0,0,0,8,0,0,1016.2,1031
167,2020-01-06T02:46:00,0.2,静穏,0.9,南南西,1.1,95.5,0,0,0,8,0,0,1016.2,1031
168,2020-01-06T02:47:00,0.2,静穏,0.9,南南西,1.1,95.6,0,0,0,8,0,0,1016.3,1031.1
169,2020-01-06T02:48:00,0.2,静穏,0.9,南南西,1.1,95.6,0,0,0,8,0,0,1016.3,1031.1
170,2020-01-06T02:49:00,0.1,静穏,0.6,南西,1.2,95.7,0,0,0,8,0,0,1016.2,1031
171,2020-01-06T02:50:00,0.1,静穏,0.6,南西,1.2,95.8,0,0,0,8,0,0,1016.2,1031
172,2020-01-06T02:51:00,0.1,静穏,0.6,南西,1.2,95.7,0,0,0,8,0,0,1016.1,1030.9
173,2020-01-06T02:52:00,0.1,静穏,0.6,南西,1.1,95.7,0,0,0,8,0,0,1016.1,1030.9
174,2020-01-06T02:53:00,0.1,静穏,0.7,南南西,0.9,95.5,0,0,0,8,0,0,1016,1030.8
175,2020-01-06T02:54:00,0.1,静穏,0.7,南南西,0.9,95.4,0,0,0,8,0,0,1016.1,1030.9
176,2020-01-06T02:55:00,0.2,静穏,0.8,西北西,0.9,95.5,0,0,0,8,0,0,1016,1030.8
177,2020-01-06T02:56:00,0.2,静穏,0.8,西北西,1,95.5,0,0,0,8,0,0,1016.1,1030.9
178,2020-01-06T02:57:00,0.2,静穏,0.8,西北西,1,95.7,0,0,0,8,0,0,1016.1,1030.9
179,2020-01-06T02:58:00,0.2,静穏,0.8,西北西,1.1,95.8,0,0,0,8,0,0,1016.1,1030.9
180,2020-01-06T02:59:00,0.2,静穏,0.8,西北西,1.1,95.8,0,0,0,8,0,0,1016.2,1031
181,2020-01-06T03:00:00,0.3,西北西,0.8,西北西,1.2,95.9,0,0,0,8,0,0,1016.2,1031
182,2020-01-06T03:01:00,0.2,静穏,0.8,西北西,1.2,95.9,0,0,0,8,0,0,1016.2,1031
183,2020-01-06T03:02:00,0.3,西,1,西,1.2,95.9,0,0,0,8,0,0,1016.2,1031
184,2020-01-06T03:03:00,0.2,静穏,1,西,1,95.8,0,0,0,8,0,0,1016.1,1030.9
185,2020-01-06T03:04:00,0.2,静穏,1,西,1,95.8,0,0,0,8,0,0,1016.2,1031
186,2020-01-06T03:05:00,0.3,西,1.1,西北西,1.1,95.8,0,0,0,8,0,0,1016.2,1031
187,2020-01-06T03:06:00,0.3,西,1.1,西北西,1.2,95.8,0,0,0,8,0,0,1016.2,1031
188,2020-01-06T03:07:00,0.4,西,1.1,西北西,1.2,95.9,0,0,0,8,0,0,1016.2,1031
189,2020-01-06T03:08:00,0.5,西,1.1,西北西,1.2,95.9,0,0,0,8,0,0,1016.3,1031.1
190,2020-01-06T03:09:00,0.5,西,1.1,西北西,1.2,95.9,0,0,0,8,0,0,1016.3,1031.1
191,2020-01-06T03:10:00,0.5,西,1.1,西北西,1.1,95.8,0,0,0,8,0,0,1016.3,1031.1
192,2020-01-06T03:11:00,0.6,西,1.2,西,1.2,95.8,0,0,0,8,0,0,1016.3,1031.1
193,2020-01-06T03:12:00,0.6,西,1.2,西,1.2,95.8,0,0,0,8,0,0,1016.4,1031.2
194,2020-01-06T03:13:00,0.7,西北西,1.2,西,1.1,95.9,0,0,0,8,0,0,1016.4,1031.2
195,2020-01-06T03:14:00,0.7,西北西,1.2,西,1.1,95.7,0,0,0,8,0,0,1016.4,1031.2
196,2020-01-06T03:15:00,0.6,西北西,1.2,西,1.2,95.8,0,0,0,8,0,0,1016.4,1031.2
197,2020-01-06T03:16:00,0.6,西北西,1.2,西,1.1,95.9,0,0,0,8,0,0,1016.5,1031.3
198,2020-01-06T03:17:00,0.6,西北西,1.2,西,1.2,95.8,0,0,0,8,0,0,1016.5,1031.3
199,2020-01-06T03:18:00,0.6,西北西,1.2,西,1.1,95.9,0,0,0,8,0,0,1016.5,1031.3
200,2020-01-06T03:19:00,0.7,西北西,1.2,西,1.2,95.8,0,0,0,8,0,0,1016.5,1031.3
201,2020-01-06T03:20:00,0.7,西北西,1.2,西,1.2,95.9,0,0,0,8,0,0,1016.5,1031.3
202,2020-01-06T03:21:00,0.6,西北西,1.2,西北西,1.2,95.9,0,0,0,8,0,0,1016.5,1031.3
203,2020-01-06T03:22:00,0.7,西北西,2.1,西,1,95.8,0,0,0,8,0,0,1016.6,1031.4
204,2020-01-06T03:23:00,0.8,西北西,2.1,西,1,95.7,0,0,0,8,0,0,1016.5,1031.3
205,2020-01-06T03:24:00,0.8,西北西,2.1,西,0.5,95.4,0,0,0,8,0,0,1016.6,1031.4
206,2020-01-06T03:25:00,0.9,西北西,2.1,西,0.5,94.9,0,0,0,8,0,0,1016.5,1031.3
207,2020-01-06T03:26:00,0.9,西,2.1,西,0.4,95,0,0,0,8,0,0,1016.5,1031.3
208,2020-01-06T03:27:00,1.1,西,2.1,西,0.4,95.1,0,0,0,8,0,0,1016.5,1031.3
209,2020-01-06T03:28:00,1.1,西,2.1,西,0.6,95.4,0,0,0,8,0,0,1016.6,1031.4
210,2020-01-06T03:29:00,1.2,西,2.1,西,0.5,95.6,0,0,0,8,0,0,1016.5,1031.3
211,2020-01-06T03:30:00,1.2,西,2.1,西,0.3,95.5,0,0,0,8,0,0,1016.5,1031.3
212,2020-01-06T03:31:00,1.2,西,2.1,西,0.3,95.4,0,0,0,8,0,0,1016.5,1031.3
213,2020-01-06T03:32:00,1.2,西,2.1,西南西,0.4,95.5,0,0,0,8,0,0,1016.5,1031.3
214,2020-01-06T03:33:00,1.2,西,2.1,西南西,0.5,95.7,0,0,0,8,0,0,1016.5,1031.3
215,2020-01-06T03:34:00,1.2,西,2,西,0.5,95.7,0,0,0,8,0,0,1016.5,1031.3
216,2020-01-06T03:35:00,1.2,西,2,西,0.5,95.7,0,0,0,8,0,0,1016.5,1031.3
217,2020-01-06T03:36:00,1.2,西,2,西,0.5,95.8,0,0,0,8,0,0,1016.4,1031.2
218,2020-01-06T03:37:00,1.1,西,2,西,0.7,95.8,0,0,0,8,0,0,1016.4,1031.2
219,2020-01-06T03:38:00,1.1,西,2,西,0.7,95.9,0,0,0,8,0,0,1016.4,1031.2
220,2020-01-06T03:39:00,1,西,2,西,0.6,95.9,0,0,0,8,0,0,1016.5,1031.3
221,2020-01-06T03:40:00,1,西,2,西,0.6,95.9,0,0,0,8,0,0,1016.4,1031.2
222,2020-01-06T03:41:00,1,西,2,西,0.6,95.9,0,0,0,8,0,0,1016.4,1031.2
223,2020-01-06T03:42:00,0.9,西北西,2,西,0.6,95.9,0,0,0,8,0,0,1016.4,1031.2
224,2020-01-06T03:43:00,0.9,西北西,2,西,0.6,95.9,0,0,0,8,0,0,1016.4,1031.2
225,2020-01-06T03:44:00,0.7,西北西,1.7,西北西,0.5,95.8,0,0,0,8,0,0,1016.4,1031.2
226,2020-01-06T03:45:00,0.6,西北西,1.4,西北西,0.5,95.7,0,0,0,8,0,0,1016.4,1031.2
227,2020-01-06T03:46:00,0.6,西北西,1.4,西北西,0.5,95.7,0,0,0,8,0,0,1016.4,1031.2
228,2020-01-06T03:47:00,0.5,西北西,1.4,西北西,0.4,95.7,0,0,0,8,0,0,1016.4,1031.2
229,2020-01-06T03:48:00,0.5,西北西,1.4,西北西,0.5,95.6,0,0,0,8,0,0,1016.4,1031.2
230,2020-01-06T03:49:00,0.5,西北西,1.4,西北西,0.7,95.8,0,0,0,8,0,0,1016.4,1031.2
231,2020-01-06T03:50:00,0.4,西北西,1.4,西北西,0.6,95.9,0,0,0,8,0,0,1016.4,1031.2
232,2020-01-06T03:51:00,0.3,北西,1.4,西北西,0.4,95.9,0,0,0,8,0,0,1016.4,1031.2
233,2020-01-06T03:52:00,0.3,北西,1.4,西北西,0.3,95.7,0,0,0,8,0,0,1016.4,1031.2
234,2020-01-06T03:53:00,0.2,静穏,0.9,北,0.4,95.6,0,0,0,8,0,0,1016.4,1031.2
235,2020-01-06T03:54:00,0.3,北北西,1,北,0.4,95.7,0,0,0,8,0,0,1016.4,1031.2
236,2020-01-06T03:55:00,0.3,北北西,1,北,0.5,95.8,0,0,0,8,0,0,1016.3,1031.1
237,2020-01-06T03:56:00,0.3,北,1,北,0.7,95.9,0,0,0,8,0,0,1016.3,1031.1
238,2020-01-06T03:57:00,0.3,北,1,北,0.7,96.1,0,0,0,8,0,0,1016.3,1031.1
239,2020-01-06T03:58:00,0.3,北北東,1,北,0.6,96,0,0,0,8,0,0,1016.2,1031
240,2020-01-06T03:59:00,0.2,静穏,1,北,0.5,95.9,0,0,0,8,0,0,1016.2,1031
241,2020-01-06T04:00:00,0.2,静穏,1,北,0.4,95.8,0,0,0,8,0,0,1016.3,1031.1
242,2020-01-06T04:01:00,0.2,静穏,1,北,0.5,95.8,0,0,0,8,0,0,1016.3,1031.1
243,2020-01-06T04:02:00,0.2,静穏,1,北,0.6,95.9,0,0,0,8,0,0,1016.3,1031.1
244,2020-01-06T04:03:00,0.2,静穏,1,北,0.5,96,0,0,0,8,0,0,1016.3,1031.1
245,2020-01-06T04:04:00,0.1,静穏,0.9,北北東,0.6,95.9,0,0,0,8,0,0,1016.4,1031.2
246,2020-01-06T04:05:00,0.1,静穏,0.8,北北東,0.5,95.9,0,0,0,8,0,0,1016.4,1031.2
247,2020-01-06T04:06:00,0,静穏,0.5,北,0.6,95.9,0,0,0,8,0,0,1016.4,1031.2
248,2020-01-06T04:07:00,0,静穏,0.5,北,0.6,96,0,0,0,8,0,0,1016.4,1031.2
249,2020-01-06T04:08:00,0,静穏,0.5,北,0.6,96,0,0,0,8,0,0,1016.3,1031.1
250,2020-01-06T04:09:00,0,静穏,0.5,北,0.8,96,0,0,0,8,0,0,1016.3,1031.1
251,2020-01-06T04:10:00,0,静穏,0.5,北,0.8,96.2,0,0,0,8,0,0,1016.2,1031
252,2020-01-06T04:11:00,0,静穏,0.5,北,0.7,96.1,0,0,0,8,0,0,1016.3,1031.1
253,2020-01-06T04:12:00,0,静穏,0.3,南西,0.5,95.9,0,0,0,8,0,0,1016.3,1031.1
254,2020-01-06T04:13:00,0,静穏,0.4,南西,0.6,95.9,0,0,0,8,0,0,1016.3,1031.1
255,2020-01-06T04:14:00,0.1,静穏,0.8,南,0.4,95.8,0,0,0,8,0,0,1016.3,1031.1
256,2020-01-06T04:15:00,0.1,静穏,0.8,南,0.5,95.7,0,0,0,8,0,0,1016.4,1031.2
257,2020-01-06T04:16:00,0.1,静穏,1.1,南南西,0.5,95.9,0,0,0,8,0,0,1016.3,1031.1
258,2020-01-06T04:17:00,0.2,静穏,1.1,南南西,0.3,95.8,0,0,0,8,0,0,1016.3,1031.1
259,2020-01-06T04:18:00,0.2,静穏,1.1,南南西,0.3,95.7,0,0,0,8,0,0,1016.3,1031.1
260,2020-01-06T04:19:00,0.2,静穏,1.1,南南西,0.3,95.7,0,0,0,8,0,0,1016.2,1031
261,2020-01-06T04:20:00,0.2,静穏,1.1,南南西,0.3,95.7,0,0,0,8,0,0,1016.3,1031.1
262,2020-01-06T04:21:00,0.2,静穏,1.1,南南西,0.4,95.8,0,0,0,8,0,0,1016.3,1031.1
263,2020-01-06T04:22:00,0.2,静穏,1.1,南南西,0.6,95.9,0,0,0,8,0,0,1016.2,1031
264,2020-01-06T04:23:00,0.2,静穏,1.1,南南西,0.5,96.1,0,0,0,8,0,0,1016.2,1031
265,2020-01-06T04:24:00,0.2,静穏,1.1,南南西,0.4,96,0,0,0,8,0,0,1016.2,1031
266,2020-01-06T04:25:00,0.2,静穏,1.1,南南西,0.5,95.9,0,0,0,8,0,0,1016.2,1031
267,2020-01-06T04:26:00,0.2,静穏,1,南南西,0.5,95.9,0,0,0,8,0,0,1016.1,1030.9
268,2020-01-06T04:27:00,0.1,静穏,1,南南西,0.4,95.9,0,0,0,8,0,0,1016.2,1031
269,2020-01-06T04:28:00,0.2,静穏,1,南南西,0.3,95.8,0,0,0,8,0,0,1016.1,1030.9
270,2020-01-06T04:29:00,0.2,静穏,1,南南西,0.5,95.8,0,0,0,8,0,0,1016.1,1030.9
271,2020-01-06T04:30:00,0.1,静穏,1,南南西,0.4,95.9,0,0,0,8,0,0,1016.2,1031
272,2020-01-06T04:31:00,0.2,静穏,1,南南西,0.3,95.9,0,0,0,8,0,0,1016.2,1031
273,2020-01-06T04:32:00,0.2,静穏,1,南南西,0.2,95.8,0,0,0,8,0,0,1016.2,1031
274,2020-01-06T04:33:00,0.2,静穏,1,南南西,0.3,95.8,0,0,0,8,0,0,1016.1,1030.9
275,2020-01-06T04:34:00,0.2,静穏,0.8,西,0.3,95.8,0,0,0,8,0,0,1016.1,1030.9
276,2020-01-06T04:35:00,0.2,静穏,0.8,西,0.3,95.9,0,0,0,8,0,0,1016.1,1030.9
277,2020-01-06T04:36:00,0.2,静穏,0.8,西,0.5,95.9,0,0,0,8,0,0,1016.1,1030.9
278,2020-01-06T04:37:00,0.2,静穏,0.8,西,0.6,96.1,0,0,0,8,0,0,1016.2,1031
279,2020-01-06T04:38:00,0.1,静穏,0.7,南,0.5,96.1,0,0,0,8,0,0,1016.2,1031
280,2020-01-06T04:39:00,0.1,静穏,0.7,南,0.5,96.1,0,0,0,8,0,0,1016.2,1031
281,2020-01-06T04:40:00,0.2,静穏,0.7,南,0.5,96,0,0,0,8,0,0,1016.3,1031.1
282,2020-01-06T04:41:00,0.2,静穏,1,西南西,0.6,96.1,0,0,0,8,0,0,1016.3,1031.1
283,2020-01-06T04:42:00,0.2,静穏,1,西南西,0.7,96.1,0,0,0,8,0,0,1016.3,1031.1
284,2020-01-06T04:43:00,0.2,静穏,1,西南西,0.4,96.1,0,0,0,8,0,0,1016.4,1031.2
285,2020-01-06T04:44:00,0.2,静穏,1,西南西,0.2,95.8,0,0,0,8,0,0,1016.4,1031.2
286,2020-01-06T04:45:00,0.2,静穏,1,西南西,0.2,95.7,0,0,0,8,0,0,1016.5,1031.3
287,2020-01-06T04:46:00,0.2,静穏,1,西南西,0.4,95.7,0,0,0,8,0,0,1016.5,1031.3
288,2020-01-06T04:47:00,0.2,静穏,1,西南西,0.4,95.9,0,0,0,8,0,0,1016.4,1031.2
289,2020-01-06T04:48:00,0.2,静穏,1,西南西,0.4,96,0,0,0,8,0,0,1016.5,1031.3
290,2020-01-06T04:49:00,0.2,静穏,1,西南西,0.4,95.9,0,0,0,8,0,0,1016.5,1031.3
291,2020-01-06T04:50:00,0.1,静穏,1,西南西,0.6,96,0,0,0,8,0,0,1016.6,1031.4
292,2020-01-06T04:51:00,0.1,静穏,0.9,西南西,0.6,96.1,0,0,0,8,0,0,1016.5,1031.3
293,2020-01-06T04:52:00,0.1,静穏,0.6,北西,0.7,96.2,0,0,0,8,0,0,1016.6,1031.4
294,2020-01-06T04:53:00,0.1,静穏,0.6,北西,0.7,96.2,0,0,0,8,0,0,1016.6,1031.4
295,2020-01-06T04:54:00,0.2,静穏,0.6,北西,0.7,96.2,0,0,0,8,0,0,1016.6,1031.4
296,2020-01-06T04:55:00,0.2,静穏,0.7,西北西,0.7,96.2,0,0,0,8,0,0,1016.6,1031.4
297,2020-01-06T04:56:00,0.2,静穏,0.7,西北西,0.6,96.2,0,0,0,8,0,0,1016.5,1031.3
298,2020-01-06T04:57:00,0.3,北西,0.7,西北西,0.5,96,0,0,0,8,0,0,1016.5,1031.3
299,2020-01-06T04:58:00,0.3,北西,0.7,西北西,0.6,96,0,0,0,8,0,0,1016.5,1031.3
300,2020-01-06T04:59:00,0.4,北西,0.8,西,0.6,96,0,0,0,8,0,0,1016.5,1031.3
301,2020-01-06T05:00:00,0.5,北西,1.2,西北西,0.6,96,0,0,0,8,0,0,1016.5,1031.3
302,2020-01-06T05:01:00,0.5,北西,1.2,西北西,0.7,96.1,0,0,0,8,0,0,1016.5,1031.3
303,2020-01-06T05:02:00,0.5,西北西,1.2,西北西,0.7,96.1,0,0,0,8,0,0,1016.4,1031.2
304,2020-01-06T05:03:00,0.5,西北西,1.2,西北西,0.7,96.1,0,0,0,8,0,0,1016.4,1031.2
305,2020-01-06T05:04:00,0.5,北西,1.2,西北西,0.7,96.1,0,0,0,8,0,0,1016.4,1031.2
306,2020-01-06T05:05:00,0.5,北西,1.2,西北西,0.7,96.1,0,0,0,8,0,0,1016.4,1031.2
307,2020-01-06T05:06:00,0.5,北西,1.2,西北西,0.6,96.1,0,0,0,8,0,0,1016.4,1031.2
308,2020-01-06T05:07:00,0.6,北西,1.2,西北西,0.8,96.1,0,0,0,8,0,0,1016.4,1031.2
309,2020-01-06T05:08:00,0.6,北北西,1.2,西北西,0.7,96.1,0,0,0,8,0,0,1016.4,1031.2
310,2020-01-06T05:09:00,0.6,北北西,1.2,西北西,0.7,96.1,0,0,0,8,0,0,1016.3,1031.1
311,2020-01-06T05:10:00,0.7,北,1.8,北,0.7,96.1,0,0,0,8,0,0,1016.2,1031
312,2020-01-06T05:11:00,0.7,北,1.8,北,0.9,96.2,0,0,0,8,0,0,1016.3,1031.1
313,2020-01-06T05:12:00,0.7,北北東,1.8,北,0.9,96.3,0,0,0,8,0,0,1016.3,1031.1
314,2020-01-06T05:13:00,0.8,北北東,1.8,北,0.8,96.2,0,0,0,8,0,0,1016.3,1031.1
315,2020-01-06T05:14:00,0.8,北北東,1.8,北,0.8,96.1,0,0,0,8,0,0,1016.3,1031.1
316,2020-01-06T05:15:00,0.9,北北東,1.8,北,0.8,96.1,0,0,0,8,0,0,1016.2,1031
317,2020-01-06T05:16:00,0.9,北,1.8,北,0.7,96.1,0,0,0,8,0,0,1016.2,1031
318,2020-01-06T05:17:00,0.9,北,1.8,北,0.8,96.1,0,0,0,0,0,0,1016.2,1031
319,2020-01-06T05:18:00,0.9,北,1.8,北,0.7,96,0,0,0,0,0,0,1016.2,1031
320,2020-01-06T05:19:00,1,北,1.8,北,0.7,96,0,0,0,0,0,0,1016.2,1031
321,2020-01-06T05:20:00,1,北,2.1,北北東,0.6,96,0,0,0,0,0,0,1016.2,1031
322,2020-01-06T05:21:00,1,北,2.1,北北東,0.6,96,0,0,0,0,0,0,1016.1,1030.9
323,2020-01-06T05:22:00,1,北北東,2.1,北北東,0.6,95.9,0,0,0,0,0,0,1016.2,1031
324,2020-01-06T05:23:00,1.1,北北東,2.1,北北東,0.6,95.9,0,0,0,0,0,0,1016.2,1031
325,2020-01-06T05:24:00,1.2,北北東,2.1,北北東,0.6,96,0,0,0,0,0,0,1016.2,1031
326,2020-01-06T05:25:00,1.1,北北東,2.1,北北東,0.5,96,0,0,0,0,0,0,1016.2,1031
327,2020-01-06T05:26:00,1.1,北北東,2.1,北北東,0.4,95.9,0,0,0,0,0,0,1016.1,1030.9
328,2020-01-06T05:27:00,1.2,北北東,2.1,北北東,0.4,95.8,0,0,0,0,0,0,1016.1,1030.9
329,2020-01-06T05:28:00,1.2,北北東,2.1,北北東,0.4,95.8,0,0,0,0,0,0,1016.2,1031
330,2020-01-06T05:29:00,1.2,北北東,2.1,北北東,0.4,95.9,0,0,0,0,0,0,1016.1,1030.9
331,2020-01-06T05:30:00,1.1,北北東,2.1,北北東,0.4,95.9,0,0,0,0,0,0,1016.1,1030.9